Location: F?ge?el
(45.8833°N, 22.5833°E)
Time: 08:30:27
(UTC+00:00)

Resurs 1-3 - Pass Details

Date: 17 November 2025
Orbit: 613 x 615 km, 97.7° (Epoch: 13 December)

Event Time Altitude Azimuth Distance (km) Brightness Sun altitude
Rises 16:39:15 0° 156° (SSE) 2,872 6.8 -17.8°
Reaches altitude 10° 16:41:26 10° 153° (SSE) 1,971 6.0 -18.2°
Maximum altitude 16:45:39 61° 74° (ENE) 703 3.5 -18.9°
Drops below altitude 10° 16:49:55 10° 354° (N) 1,986 6.1 -19.6°
Sets 16:52:07 0° 351° (N) 2,895 7.0 -20.0°
